sat.trackr.live / text

‹ back to catalog

STP-S29A OBJECT E

NORAD 68631 · 2026-074E

PAYLOAD ACTIVE UNKNOWN

§ Identity

Operator
Country
US
Launch date
2026-04-07
Launch site
AFWTR
Launch vehicle
Mass (kg)
RCS (m²)

External: N2YO · Heavens-Above · Gunter

§ Orbital elements

Epoch: 2026-05-24T18:05:53.645568Z

Period
94.47 min
Inclination
60.0210°
Eccentricity
0.0024256
Mean motion
15.24325944 rev/d
Perigee alt
476.1 km
Apogee alt
509.5 km
Semi-major
6,870.9 km
B*
1.6011e-4
RAAN
268.0701°
Arg perigee
7.9671°
Mean anomaly
352.1790°
Rev number
721

§ Raw data

STP-S29A OBJECT E1 68631U 26074E   26144.75409312  .00003689  00000+0  16011-3 0  99982 68631  60.0210 268.0701 0024256   7.9671 352.1790 15.24325944  7214

JSON: /api/v1/satellites/68631 · /tle

For live sub-satellite position, see the globe view (requires WebGL).

§ Visibility from observer

Set your observer location to see the next 7 days of passes ≥ 10°. The values pass through the URL so the page stays shareable.

No JS? Fill the form by hand. The geolocation button needs JavaScript.